Regional Weather Roundup
Issued by NWS

Home | Current Version | Previous Version | Text Only | Print | Product List | Glossary On
Versions: 1 2 3 4 5 6 7 8 9 10 11 12 13 14 15 16 17 18 19 20 21 22 23 24 25 26 27 28 29 30 31 32 33 34 35 36 37 38 39 40 41 42 43 44 45 46 47 48 49 50
000
ASUS43 KMPX 020910
RWRMN
WEATHER ROUNDUP FOR MINNESOTA
NATIONAL WEATHER SERVICE TWIN CITIES/CHANHASSEN MN
400 AM CDT MON MAY 02 2016


NOTE: "FAIR" INDICATES FEW OR NO CLOUDS BELOW 12,000 FEET WITH NO
SIGNIFICANT WEATHER AND/OR OBSTRUCTIONS TO VISIBILITY. N/A MEANS
CURRENT SKY AND/OR WEATHER CONDITIONS ARE NOT AVAILABLE.

MNZ060>063-068>070-021000-
   Twin Cities Metro

CITY           SKY/WX    TMP DP  RH WIND       PRES   REMARKS
TWIN CITIES    CLEAR     43  37  79 CALM      30.12S
ST PAUL        CLEAR     42  35  76 CALM      30.13S
CRYSTAL        CLEAR     40  35  83 CALM      30.11S
BLAINE         CLEAR     39  36  87 CALM      30.11F
EDEN PRAIRIE   CLEAR     44  35  70 CALM      30.10F
SOUTH ST PAUL  CLEAR     40  34  77 CALM      30.11S
LAKE ELMO      FAIR      36  34  93 CALM      30.12S
$$
MNZ001>005-007-008-013>017-022>024-027-028-021000-
   Northwest Minnesota

CITY           SKY/WX    TMP DP  RH WIND       PRES   REMARKS
BEMIDJI        PTCLDY    31  28  86 CALM      30.09S
HALLOCK        PTCLDY    45  28  53 SE9       30.06S
ROSEAU         PTCLDY    43  34  70 CALM      30.08S
WARROAD        CLOUDY    41  32  70 CALM      30.09R
THIEF RVR FALL MOCLDY    45  28  53 CALM      30.09S
CROOKSTON      CLOUDY    48  34  57 S5        30.08S
FOSSTON        CLOUDY    36  27  69 CALM      30.09S
DETROIT LAKES  CLOUDY    43  34  70 CALM      30.10S
MOORHEAD       MOCLDY    43  30  61 CALM      30.09F
PARK RAPIDS    CLOUDY    40  31  70 CALM      30.09F
MAHNOMEN       FAIR      42  32  67 S5        30.08S
$$
MNZ006-009>011-018-025>026-021000-
   North Central Minnesota

CITY           SKY/WX    TMP DP  RH WIND       PRES   REMARKS
BAUDETTE       CLOUDY    37  32  82 E5        30.08S
FLAG ISLAND    CLOUDY    45  30  57 CALM      30.08S
INTL FALLS     CLOUDY    29  26  89 CALM      30.10R
WASKISH        CLOUDY    36  34  93 CALM      30.09S
BIG FORK       CLEAR     30  27  86 CALM      30.10S
LONGVILLE      CLEAR     30  28  93 CALM      30.10S
GRAND RAPIDS   CLEAR     37  28  70 SE3       30.11S
CRANE LAKE     CLEAR     27  25  93 CALM      30.13S
ORR            CLEAR     37  28  70 CALM      30.09R
COOK           CLEAR     28  27  93 CALM      30.11S
WALKER         FAIR      38  30  74 W5        30.09S
$$
MNZ012-019>021-037-021000-
   Northeast Minnesota

CITY           SKY/WX    TMP DP  RH WIND       PRES   REMARKS
DULUTH         CLEAR     33  28  81 CALM      30.12S
ELY            CLEAR     30  27  86 CALM      30.11S
HIBBING        CLEAR     27  26  96 CALM      30.11F
EVELETH          N/A     30  30 100 CALM      30.12F FOG
DULUTH HARBOR  CLEAR     36  34  93 CALM      30.15S
TWO HARBORS    CLEAR     32  27  80 CALM      30.11S
SILVER BAY     CLEAR     28  27  93 CALM      30.11S
GRAND MARAIS     N/A     33  29  85 NW3       30.13F
G MARAIS ARPRT CLEAR     28  25  86 CALM      30.12S
$$
MNZ029>031-032-039>041-046>048-054>057-064-021000-
   West Central Minnesota

CITY           SKY/WX    TMP DP  RH WIND       PRES   REMARKS
FERGUS FALLS   CLOUDY    43  36  75 SE5       30.08F
WHEATON        CLEAR     37  34  87 CALM      30.13S
MORRIS         CLEAR     41  32  70 S3        30.11S
ALEXANDRIA     CLEAR     41  32  70 S6        30.12F
ELBOW LAKE     FAIR      38  31  74 S6        30.11S
WADENA         CLEAR     37  30  75 SW3       30.10S
GLENWOOD       CLEAR     41  30  65 SW3       30.12F
APPLETON       CLEAR     37  34  87 CALM      30.12S
BENSON         CLEAR     34  30  86 CALM      30.12F
ORTONVILLE     CLEAR     43  32  65 SW5       30.11F
MADISON        CLEAR     37  34  87 SW5       30.12F
WILLMAR        FAIR      37  34  87 CALM      30.14S
$$
MNZ033>034-036-042>043-049>051-058-059-021000-
   Central Minnesota

CITY           SKY/WX    TMP DP  RH WIND       PRES   REMARKS
ST CLOUD       CLEAR     34  32  92 CALM      30.12S
SAUK CENTRE    FAIR      34  31  91 CALM      30.13S
PAYNESVILLE    CLEAR     34  33  95 CALM      30.13F
AITKIN         CLEAR     32  28  86 CALM      30.10F
PINE RIVER     CLEAR     34  30  86 CALM      30.13F
BRAINERD       CLEAR     33  29  85 CALM      30.12S
STAPLES        CLEAR     39  30  70 CALM      30.10F
LONG PRAIRIE   FAIR      34  32  93 CALM      30.12F
LITTLE FALLS   CLEAR     32  30  93 CALM      30.13S
LITCHFIELD     CLEAR     39  39 100 CALM      30.13S
BUFFALO        CLEAR     37  34  87 CALM      30.13S
MAPLE LAKE     CLEAR     36  34  95 CALM      30.13S
HUTCHINSON     PTCLDY    37  36  96 CALM      30.14S
$$
MNZ037-044-045-052-053-021000-
   East Central Minnesota

CITY           SKY/WX    TMP DP  RH WIND       PRES   REMARKS
PRINCETON      CLEAR     34  30  86 CALM      30.13S
MORA           PTCLDY    34  32  93 CALM      30.15R
CAMBRIDGE      CLEAR     36  28  75 CALM      30.11S
RUSH CITY      CLEAR     35  32  88 CALM      30.12F
MOOSE LAKE     CLEAR     32  30  93 CALM      30.12R
HINCKLEY       FAIR      32  32 100 CALM      30.13S
CLOQUET        CLEAR     28  27  93 NW2       30.12S
MCGREGOR       CLEAR     34  32  93 CALM      30.13S
$$
MNZ071>073-080-081-089-090-097-098-021000-
   Southwest Minnesota

CITY           SKY/WX    TMP DP  RH WIND       PRES   REMARKS
MONTEVIDEO     CLEAR     43  30  61 W5        30.14F
GRANITE FALLS  CLEAR     38  32  78 W5        30.15S
CANBY          CLEAR     45  35  67 SW3       30.14S
MARSHALL       CLEAR     38  32  79 W5        30.13F
REDWOOD FALLS  CLEAR     42  32  67 W5        30.13F
OLIVIA         CLEAR     37  32  81 CALM      30.13S
PIPESTONE      CLEAR     41  34  75 CALM      30.13F
WINDOM         CLEAR     39  36  87 CALM      30.12F
WORTHINGTON    CLEAR     38  35  89 W5        30.13F
JACKSON        MOCLDY    41  36  81 W3        30.12F
TRACY          CLEAR     44  34  68 W6        30.13F
SLAYTON        CLEAR     37  33  89 W7        30.13F
$$
MNZ065>067-074>077-082>085-091>093-021000-
   South Central Minnesota

CITY           SKY/WX    TMP DP  RH WIND       PRES   REMARKS
MANKATO        CLEAR     43  34  70 N3        30.11F
NEW ULM        CLEAR     39  36  87 W5        30.12F
ST JAMES       PTCLDY    34  32  93 NW3       30.13F
FAIRMONT       CLEAR     41  34  75 NW6       30.11S
GLENCOE        CLEAR     39  37  93 NW3       30.12S
FARIBAULT      CLEAR     37  36  93 CALM      30.11F
OWATONNA       CLEAR     37  36  93 CALM      30.11S FOG
WASECA         CLEAR     37  34  87 N6        30.11F
ALBERT LEA     CLEAR     45  39  81 W2        30.10F
$$
MNZ078>079-086>088-094>096-021000-
   Southeast Minnesota

CITY           SKY/WX    TMP DP  RH WIND       PRES   REMARKS
ROCHESTER      PTCLDY    44  41  89 SW3       30.11S
RED WING       PTCLDY    37  34  87 CALM      30.11S
STANTON        CLEAR     39  36  86 CALM      30.10F
DODGE CENTER   PTCLDY    37  36  93 CALM      30.11R
WINONA         PTCLDY    41  41 100 CALM      30.12F FOG
AUSTIN         PTCLDY    39  37  93 CALM      30.10F FOG
PRESTON        CLOUDY    42  38  85 CALM      30.12S
$$
ABBREVIATIONS USED IN REMARKS
   TC - TEMPERATURES IN CELSIUS
  WCI - WIND CHILL INDEX
   HX - HEAT INDEX
  VSB - VISIBILITY
$$




USA.gov is the U.S. government's official web portal to all federal, state and local government web resources and services.